Tracking 29892 objects as of 21-Nov-2024
HD Live streaming from Space Station
objects crossing your sky now

TIANHUI 6A

Track TIANHUI 6A now!
10-day predictions


NORAD ID: 55836
Int'l Code: 2023-030A
Perigee: 894.8 km
Apogee: 897.9 km
Inclination: 99.0 °
Period: 102.8 minutes
Semi major axis: 7267 km
RCS: Unknown
Launch date: March 9, 2023
Source: People's Republic of China (PRC)
Launch site: Taiyaun Space Center, China (TSC)
Your satellite tracking list
Your tracking list is empty




NASA's NSSDC Master Catalog

Two Line Element Set (TLE):
1 55836U 23030A   24326.17852490  .00000094  00000-0  91511-4 0  9992
2 55836  99.0011 331.0220 0002194  96.2822 263.8593 14.01324959 87150
Source of the keplerian elements: AFSPC